Lapse_Rate
5.2 5.2 5.2 5.4 5.4 5.7 6.1 6.8 6.2 5.9 5.9 5.8 5.9 6.0 6.1 6.2 6.1 6.1 6.0 6.1 6.4 6.5 6.4 6.5 6.7 6.8 7.0
5.4 5.4 5.6 5.8 6.3 6.1 6.1 5.9 5.5 5.6 5.5 5.9 5.9 5.9 6.1 6.2 6.2 6.2 6.1 6.3 6.6 6.8 6.7 6.8 6.9 7.0 7.0
5.8 6.0 6.0 5.9 5.9 5.9 6.2 5.7 5.4 5.2 5.5 5.7 5.6 5.9 6.2 6.3 6.5 6.4 6.3 6.6 6.8 7.0 6.9 6.9 7.0 7.1 7.0
6.3 6.1 6.1 6.1 6.1 6.1 5.7 5.0 5.4 5.5 5.8 5.8 5.9 6.1 6.2 6.5 6.6 6.6 6.6 6.7 6.9 7.0 6.9 7.0 7.1 7.0 7.0
6.5 6.5 6.4 6.3 6.1 5.9 5.8 5.3 5.3 5.5 5.6 5.8 6.2 6.3 6.4 6.6 6.8 6.6 6.7 6.9 7.1 6.9 6.9 7.0 7.1 7.0 7.0
6.5 6.4 6.3 6.1 6.1 5.8 5.4 5.6 5.6 5.7 5.5 5.6 5.8 6.2 6.6 6.7 6.8 6.8 6.8 6.9 7.1 7.0 7.0 7.0 7.0 7.0 6.9
6.8 6.5 6.3 6.1 6.1 5.9 5.7 5.4 5.7 5.5 5.5 5.8 6.0 6.3 6.5 6.6 6.7 6.7 6.9 6.9 7.2 7.0 7.0 7.0 6.9 6.9 6.8
6.5 6.4 6.1 5.7 5.1 4.9 5.3 5.3 5.5 5.6 5.9 6.0 6.1 6.3 6.4 6.7 6.7 6.8 6.7 7.2 7.1 7.0 7.0 6.9 6.9 6.8 6.7
6.5 6.3 6.0 5.7 5.5 5.2 5.3 5.4 5.7 6.2 6.1 6.2 6.3 6.4 6.5 6.7 6.8 6.8 6.9 7.2 7.0 6.9 6.8 6.8 6.7 6.6 6.5
6.3 5.9 5.8 5.7 5.7 5.8 5.7 5.9 6.2 6.1 6.0 6.0 6.2 6.4 6.7 6.7 6.8 6.9 7.1 7.1 6.8 6.7 6.7 6.6 6.6 6.5 6.4
5.9 5.4 5.4 5.6 5.8 5.8 5.8 5.9 5.9 5.9 5.9 6.0 6.4 6.5 6.6 6.7 6.9 6.9 7.1 6.8 6.7 6.6 6.5 6.4 6.4 6.3 6.3
5.0 5.0 4.8 5.1 5.2 5.3 5.5 5.6 5.6 5.9 6.1 6.3 6.4 6.4 6.6 6.7 6.6 7.0 6.8 6.7 6.6 6.5 6.4 6.3 6.3 6.3 6.3
4.3 4.3 4.5 4.9 5.1 5.3 5.5 5.8 5.9 6.0 6.1 6.5 6.5 6.5 6.7 6.3 6.4 6.7 6.6 6.5 6.5 6.4 6.2 6.1 6.1 6.2 6.3
4.9 5.0 5.0 5.2 5.4 5.7 5.9 6.0 6.1 6.1 6.1 6.2 6.4 6.5 6.3 6.1 6.4 6.4 6.4 6.5 6.3 6.3 6.2 6.1 5.9 6.0 6.1
5.1 5.2 5.1 5.3 5.5 5.7 5.9 6.0 5.9 6.0 5.9 6.1 5.9 6.1 6.0 5.9 6.2 6.3 6.2 6.2 6.4 6.3 6.1 6.0 5.8 5.8 5.8
5.1 5.0 5.0 5.4 5.4 5.4 5.5 5.6 5.7 5.7 5.8 5.6 5.9 5.9 5.7 5.7 5.9 6.2 6.1 6.0 6.1 6.2 6.0 5.8 5.5 5.5 5.5
5.0 4.7 4.8 5.2 5.3 5.1 5.2 5.2 5.4 5.6 5.4 5.4 5.5 5.5 5.4 5.3 5.6 5.8 5.7 5.8 5.8 5.7 5.7 5.6 5.4 5.2 5.4
Wind_Speed
1 1 2 3 6 6 6 6 6 7 7 8 8 6 7 8 9 10 10 10 10 9 9 8 7 7 5
3 3 3 3 4 5 5 4 5 5 6 7 7 6 7 8 9 9 9 8 9 10 8 7 6 6 5
2 0 1 2 2 2 2 3 3 4 6 6 8 8 9 9 9 8 7 8 8 8 7 7 7 7 6
2 2 2 1 2 2 2 1 2 3 5 7 9 7 7 7 7 8 6 5 6 6 7 7 7 7 6
2 2 2 2 5 3 3 2 2 2 2 1 5 4 4 5 5 9 7 6 6 7 7 8 8 7 5
2 3 3 3 3 3 3 3 3 6 3 2 3 2 4 5 6 7 9 8 8 9 9 9 8 6 6
3 3 2 4 4 4 4 2 2 2 2 2 2 2 4 5 6 9 9 9 10 10 9 9 8 6 6
2 4 4 2 3 2 3 4 3 2 1 2 2 2 2 4 2 9 10 10 9 8 9 10 9 7 6
11 8 5 3 5 4 3 4 1 2 2 2 2 2 1 1 2 5 10 8 7 7 10 9 10 9 6
4 7 10 9 5 2 3 3 2 1 3 3 2 2 1 1 0 2 7 4 6 6 7 9 10 7 5
2 2 3 4 5 6 4 2 2 1 4 3 2 2 2 2 1 1 3 3 3 3 4 4 5 6 4
1 1 1 1 2 4 5 5 4 2 12 6 2 2 2 1 2 1 1 2 3 3 3 3 2 4 7
1 1 1 1 4 3 7 9 10 7 6 2 4 3 2 2 2 2 3 2 3 3 3 4 3 4 1
2 1 2 2 0 1 1 1 2 2 3 3 6 5 2 2 2 2 2 3 1 3 3 3 7 9 11
2 2 2 2 1 1 1 1 2 1 1 1 3 4 3 4 2 3 3 2 3 3 2 1 4 12 13
2 3 3 3 3 1 1 2 2 2 1 1 2 1 2 6 13 3 2 2 3 3 2 3 3 7 13
4 4 3 3 5 3 3 2 2 2 3 2 2 2 1 2 2 16 4 2 2 3 3 5 2 3 9
Wind_Direction
72 138 181 157 152 167 165 149 126 121 125 121 115 124 129 131 134 133 137 139 135 136 137 135 138 130 115
185 192 187 181 160 161 155 162 146 142 139 131 127 145 138 138 136 130 135 139 142 138 142 135 144 143 137
210 193 154 175 139 141 129 146 133 161 145 154 145 145 137 140 140 140 146 143 143 144 142 139 144 150 153
183 198 185 175 144 138 184 148 164 119 130 134 131 156 156 155 165 156 160 161 172 168 159 152 152 154 155
192 181 197 183 197 176 156 134 194 167 171 119 117 156 152 156 195 177 180 193 210 199 179 172 164 161 162
204 220 213 202 164 168 128 155 211 185 156 175 141 207 205 203 201 205 203 210 213 204 191 185 174 169 157
273 247 260 206 158 166 161 155 161 153 125 162 168 211 212 213 219 209 200 201 204 198 193 194 188 180 175
307 302 289 285 173 173 134 102 74 89 122 164 160 196 203 213 239 201 188 186 198 206 208 208 204 193 190
46 39 46 90 143 115 131 138 135 184 199 128 177 139 187 208 195 191 180 192 206 223 210 208 204 193 195
19 31 46 59 49 16 149 152 122 162 213 134 156 154 160 257 162 108 131 167 202 202 180 176 182 165 170
67 37 33 32 28 46 79 148 152 172 191 120 160 149 98 148 151 163 179 171 168 136 114 132 168 178 186
63 346 346 358 36 53 50 66 65 177 167 143 143 153 138 160 165 162 148 174 179 178 192 208 212 223 225
226 244 196 176 122 59 61 68 71 83 124 154 141 140 134 150 159 180 143 219 179 163 185 192 202 211 262
196 168 115 108 146 95 90 28 66 357 30 104 142 146 129 186 146 170 195 181 163 172 163 234 245 240 243
166 165 176 143 190 139 113 88 115 198 249 210 211 216 207 161 192 202 194 202 199 186 144 261 249 240 238
187 187 187 184 178 172 131 158 175 189 211 192 152 168 334 254 217 189 207 200 195 188 153 216 266 241 236
198 199 190 188 215 191 188 180 203 195 205 163 138 138 203 267 284 209 194 201 180 190 186 206 222 251 247